Tracking 29892 objects as of 21-Nov-2024
HD Live streaming from Space Station
objects crossing your sky now

OBJECT S

Track OBJECT S now!
10-day predictions


NORAD ID: 51840
Int'l Code: 2022-019S
Perigee: 483.6 km
Apogee: 486.9 km
Inclination: 97.4 °
Period: 94.2 minutes
Semi major axis: 6856 km
RCS: Unknown
Launch date: February 27, 2022
Source: People's Republic of China (PRC)
Launch site: Wenchang Satellite Launch Center (WSC)
Your satellite tracking list
Your tracking list is empty




NASA's NSSDC Master Catalog

Two Line Element Set (TLE):
1 51840U 22019S   24326.13347318  .00026838  00000-0  94654-3 0  9997
2 51840  97.4186  39.4086 0002346  48.1369 312.0071 15.29230662151345
Source of the keplerian elements: AFSPC